Spokane Felts, WA
on Thursday, December 20, 2012

Thursday
Previous Day Next Day
Daily Summary
 ActualAverageRecord
Temperature
Mean Temperature °F 29°F  
Max Temperature 45°F 35°F 51°F (1996)
Min Temperature 33°F 23°F -3°F (2008)
Degree Days
Heating Degree Days 26 36  
Month to date heating degree days 531 699  
Since 1 July heating degree days 1804 2273  
Cooling Degree Days 0 0  
Month to date cooling degree days 0 0  
Year to date cooling degree days 509 406  
Moisture
Dew Point 27°F   
Average Humidity 60    
Maximum Humidity 82    
Minimum Humidity 37    
Precipitation
Precipitation 0.24 in 0.08 in 0.24 in (2012)
Month to date precipitation 1.23 1.68  
Year to date precipitation 19.99 16.90  
Wind
Wind Speed 9 mph   
Max Wind Speed 20 mph   
Max Gust Speed 26 mph   
Visibility 6 miles   
Events Rain , Snow   

Key: T is trace of precipitation, MM is missing value
Source: NWS Daily Summary
Time(PST)TemperatureDew PointHumidity Pressure Visibility Wind DirectionWind SpeedGust SpeedPrecipitationEvents Conditions
12:02 AM 33.8°F 26.6°F 75% 29.91 in 1.8 miles North 3.5 mph - 0.00 in Snow Light Snow
12:11 AM 33.8°F 28.4°F 81% 29.90 in 1.5 miles Variable 5.8 mph - 0.00 in Snow Light Snow
12:19 AM 33.8°F 26.6°F 75% 29.90 in 2.0 miles Variable 3.5 mph - 0.01 in Snow Light Snow
12:23 AM 33.8°F 26.6°F 75% 29.90 in 4.0 miles East 5.8 mph - 0.01 in Snow Light Snow
12:28 AM 33.8°F 26.6°F 75% 29.89 in 6.0 miles Variable 3.5 mph - 0.01 in Snow Light Snow
12:53 AM 34.0°F 27.0°F 75% 29.92 in 4.0 miles East 10.4 mph 16.1 mph 0.01 in Snow Light Snow
1:53 AM 35.1°F 27.0°F 72% 29.92 in 10.0 miles ESE 10.4 mph 18.4 mph 0.01 in   Overcast
2:08 AM 35.6°F 26.6°F 70% 29.89 in 2.5 miles SE 9.2 mph - 0.00 in Snow Light Snow
2:19 AM 33.8°F 28.4°F 81% 29.88 in 1.8 miles Variable 6.9 mph 16.1 mph 0.00 in Snow Light Snow
2:53 AM 33.1°F 28.0°F 82% 29.93 in 1.0 miles ESE 9.2 mph - 0.01 in Snow Light Snow
3:05 AM 33.8°F 28.4°F 81% 29.88 in 2.0 miles East 5.8 mph 17.3 mph 0.00 in Snow Light Snow
3:14 AM 33.8°F 28.4°F 81% 29.88 in 1.0 miles Variable 4.6 mph - 0.00 in Snow Light Snow
3:18 AM 33.8°F 28.4°F 81% 29.88 in 0.8 miles Variable 3.5 mph - 0.00 in Snow Light Snow
3:26 AM 33.8°F 28.4°F 81% 29.88 in 1.0 miles Calm Calm - 0.00 in Snow Light Snow
3:43 AM 33.8°F 28.4°F 81% 29.87 in 2.0 miles Variable 4.6 mph - 0.01 in Snow Light Snow
3:53 AM 33.1°F 28.0°F 82% 29.91 in 2.0 miles East 10.4 mph - 0.01 in Snow Light Snow
4:00 AM 33.8°F 28.4°F 81% 29.86 in 1.2 miles East 9.2 mph - 0.00 in Snow Light Snow
4:30 AM 33.8°F 28.4°F 81% 29.86 in 2.5 miles Variable 6.9 mph - 0.00 in Snow Light Snow
4:37 AM 33.8°F 28.4°F 81% 29.85 in 3.0 miles Variable 5.8 mph - 0.01 in Snow Light Snow
4:53 AM 34.0°F 28.9°F 82% 29.90 in 2.5 miles Variable 3.5 mph - 0.01 in Snow Light Snow
5:29 AM 33.8°F 28.4°F 81% 29.85 in 4.0 miles Variable 4.6 mph - 0.01 in Snow Light Snow
5:36 AM 33.8°F 30.2°F 87% 29.85 in 2.5 miles Calm Calm - 0.01 in Snow Light Snow
5:53 AM 34.0°F 28.9°F 82% 29.88 in 2.5 miles Variable 5.8 mph - 0.01 in Snow Light Snow
5:57 AM 33.8°F 28.4°F 81% 29.84 in 3.0 miles ENE 6.9 mph - 0.00 in Snow Light Snow
6:53 AM 36.0°F 28.0°F 73% 29.87 in 10.0 miles Variable 4.6 mph - 0.02 in   Overcast
7:53 AM 37.0°F 27.0°F 67% 29.86 in 10.0 miles East 9.2 mph - 0.03 in   Overcast
8:53 AM 36.0°F 28.0°F 73% 29.86 in 10.0 miles Calm Calm - 0.05 in   Overcast
9:53 AM 37.9°F 25.0°F 60% 29.85 in 10.0 miles East 8.1 mph - 0.05 in   Overcast
10:53 AM 39.0°F 27.0°F 62% 29.83 in 10.0 miles East 9.2 mph - 0.01 in   Overcast
11:53 AM 39.0°F 28.0°F 65% 29.79 in 10.0 miles East 12.7 mph - 0.01 in   Overcast
12:53 PM 42.1°F 24.1°F 49% 29.78 in 10.0 miles ESE 9.2 mph - N/A   Overcast
1:53 PM 43.0°F 24.1°F 47% 29.76 in 10.0 miles SE 8.1 mph - N/A   Overcast
2:53 PM 44.1°F 21.0°F 40% 29.77 in 10.0 miles South 11.5 mph 20.7 mph N/A   Overcast
3:53 PM 45.0°F 19.9°F 37% 29.77 in 10.0 miles SSE 17.3 mph 25.3 mph N/A   Overcast
4:53 PM 45.0°F 19.9°F 37% 29.78 in 10.0 miles South 13.8 mph 24.2 mph N/A   Overcast
5:53 PM 44.1°F 21.0°F 40% 29.80 in 10.0 miles South 11.5 mph - N/A   Mostly Cloudy
6:53 PM 43.0°F 21.9°F 43% 29.82 in 10.0 miles SSW 9.2 mph - N/A   Mostly Cloudy
7:53 PM 39.9°F 23.0°F 51% 29.85 in 10.0 miles SW 8.1 mph - N/A   Mostly Cloudy
8:53 PM 39.0°F 25.0°F 57% 29.88 in 10.0 miles SW 8.1 mph - N/A   Overcast
9:53 PM 39.0°F 26.1°F 60% 29.89 in 10.0 miles SW 3.5 mph - N/A   Overcast
10:53 PM 37.9°F 28.0°F 68% 29.90 in 10.0 miles South 4.6 mph - N/A   Overcast
11:25 PM 37.4°F 28.4°F 70% 29.88 in 10.0 miles SE 9.2 mph - N/A   Overcast
11:53 PM 36.0°F 30.0°F 79% 29.91 in 10.0 miles ESE 6.9 mph - 0.01 in Rain Light Rain
Moon Phase
Dec. 20 Dec. 28 Jan. 04 Jan. 11 Jan. 18
Sunrise:07:34 AM (PST) Moon Rise:11:40 AM (PST)
Sunset:03:59 PM (PST) Moon Set:12:03 AM (PST)

Copyright © 2014 The Weather Underground, Inc.